STARLINK-1812 (47126 NORAD) Tracking and Keplerian Element Data

This shows tracking and keplerian element data for the satellite.

Feedback or suggestion? Click here.




ElementValue
Catalog47126
NameSTARLINK-1812
Epoch Orbit1575
Epoch Day60.91667824
Epoch Year2021
RAAN253.7363
Inclination53.0536
Eccentricity0.0002372
Argument of Perigee100.5109
Mean Anonmoly105.3843
Mean Motion15.06368422
Decay Rate0.00028299
L11 47126U 20088E 21060.91667824 .00028299 00000-0 19127-2 0 9992
L22 47126 53.0536 253.7363 0002372 100.5109 105.3843 15.06368422 15752

Live tracking and technical data element details for STARLINK-1812 (NORAD 47126). STARLINK-1812 can be tracked NOW for your location showing map with azimuth and elevation plus other details from your city location.

Track the satellite on the map from your city or location and see movement details for azimuth, elevation, latitude, longitude, range, height, and movement on the map or in text.







IsCatalogInMostPopularTable: catalog: 47126, numindb: 28
Update: records affected: 1



GetName: 47126 STARLINK-1812

Hit Count: updated at: Tue, 02 Mar 2021 15:05:38 GMT